Вернуться в каталог

STARLINK-32077

АктивенСвязьVLEO
NORAD 60344·PAYLOAD·🇺🇸 United States

Запущен Aug 2, 2024 с Cape Canaveral Space Force Station

Loading…

Ближайшие Пролёты (ближайшие 24 часа)

TLE

СвежийSource: CelesTrak SupGP

Эпоха: Sep 14, 2026, 21:16 UTC

1 60344C 24136R   26257.88659722  .00046210  00000+0  13656-2 0  2574
2 60344  53.1571 275.9913 0001289  81.8509 282.8087 15.34360381    18

Отслеживайте STARLINK-32077 в реальном времени с AllMySat

Download on the App Store